This is the latest recevied weather packets stored in our database for station/object KE8RXN. If no packets are shown the sender has not sent any weather packets the latest 10 day(s).
| Time | Temp. | Humidity | Pressure | Rain* | Wind** | Luminosity | Snow |
|---|---|---|---|---|---|---|---|
| 1778085416 | 11.67° C | 43% | 1017 hPa | 0 mm | - | 276 W/m² | - |
| 1778085111 | 11.67° C | 44% | 1016.9 hPa | 0 mm | - | 227 W/m² | - |
| 1778084807 | 11.67° C | 41% | 1016.8 hPa | 0 mm | - | 282 W/m² | - |
| 1778084505 | 11.11° C | 43% | 1017.1 hPa | 0 mm | - | 574 W/m² | - |
| 1778084202 | 10.56° C | 44% | 1016.9 hPa | 0 mm | - | 404 W/m² | - |
| 1778083899 | 10.56° C | 45% | 1017.1 hPa | 0 mm | - | 236 W/m² | - |
| 1778083597 | 10.56° C | 45% | 1017 hPa | 0 mm | - | 191 W/m² | - |
| 1778083293 | 11.67° C | 42% | 1017 hPa | 0 mm | - | 166 W/m² | - |
| 1778082991 | 12.78° C | 40% | 1017.1 hPa | 0 mm | - | 348 W/m² | - |
| 1778082688 | 11.11° C | 43% | 1017.1 hPa | 0 mm | - | 342 W/m² | - |
| 1778081545 | 11.67° C | 42% | 1017.1 hPa | 0 mm | - | 678 W/m² | - |
| 1778081242 | 11.11° C | 43% | 1017.2 hPa | 0 mm | - | 666 W/m² | - |
| 1778080939 | 11.11° C | 43% | 1016.9 hPa | 0 mm | - | 724 W/m² | - |
| 1778080638 | 11.11° C | 42% | 1016.9 hPa | 0 mm | - | 831 W/m² | - |
| 1778080334 | 11.11° C | 42% | 1017 hPa | 0 mm | - | 846 W/m² | - |
| 1778080031 | 11.11° C | 44% | 1017 hPa | 0 mm | - | 820 W/m² | - |
| 1778079728 | 10.56° C | 43% | 1017 hPa | 0 mm | - | 746 W/m² | - |
| 1778079425 | 10° C | 45% | 1016.9 hPa | 0 mm | - | 756 W/m² | - |
| 1778079121 | 10° C | 43% | 1017.1 hPa | 0 mm | - | 781 W/m² | - |
| 1778078819 | 10° C | 43% | 1017.1 hPa | 0 mm | - | 712 W/m² | - |
| 1778078515 | 11.11° C | 44% | 1016.9 hPa | 0 mm | - | 775 W/m² | - |
| 1778078213 | 11.11° C | 42% | 1016.7 hPa | 0 mm | - | 702 W/m² | - |
| 1778077911 | 11.11° C | 46% | 1016.7 hPa | 0 mm | - | 596 W/m² | - |
| 1778077609 | 10° C | 46% | 1016.7 hPa | 0 mm | - | 609 W/m² | - |
| 1778077307 | 10.56° C | 48% | 1016.7 hPa | 0 mm | - | 630 W/m² | - |
* Rain latest hour (hover to see other rain measurements)
** Current wind speed in m/s (hover to see current wind gust speed)